Weather reports worldwide

Advertisment
Cap Bear, France (7749): temperature & dewpoint: 11.10.2018 08:00:00 - 17.10.2018 08:00:00 (CEST)Cap Bear, France (7749): wind speed & gusts: 11.10.2018 08:00:00 - 17.10.2018 08:00:00 (CEST)Cap Bear, France (7749): wind direction: 11.10.2018 08:00:00 - 17.10.2018 08:00:00 (CEST)Cap Bear, France (7749): reduced air pressure: 11.10.2018 08:00:00 - 17.10.2018 08:00:00 (CEST)Cap Bear, France (7749): visibility: 11.10.2018 08:00:00 - 17.10.2018 08:00:00 (CEST)Cap Bear, France (7749): precipitation: 11.10.2018 08:00:00 - 17.10.2018 08:00:00 (CEST)
Date & Time tt [°C] td [°C] ff [km/h] ff [kn] fx [km/h] fx [kn] dd ppp [hPa] vv [km] rr [mm]
17.10.2018 08:00:00 16,5 15,2 24 13 34 18 NW 1017,0 - 0,0
17.10.2018 07:00:00 16,6 15,1 24 13 34 18 NW 1017,1 - 0,0
17.10.2018 06:00:00 16,4 15,3 26 14 33 18 NW 1017,1 - 0,0
17.10.2018 05:00:00 16,5 15,5 24 13 35 19 NW 1017,1 - 0,2
17.10.2018 04:00:00 16,4 15,4 26 14 33 18 WNW 1017,5 - 0,0
17.10.2018 03:00:00 16,6 15,8 25 14 33 18 NW 1017,8 - 3,7
17.10.2018 02:00:00 17,0 15,9 18 10 31 17 NW 1018,2 - 0,0
17.10.2018 01:00:00 17,2 15,7 13 7 36 19 NNW 1018,3 - 0,0
17.10.2018 00:00:00 17,2 15,9 17 9 34 19 NNW 1018,4 - 0,8
16.10.2018 23:00:00 16,5 15,4 24 13 38 21 WNW 1018,5 - 0,6
16.10.2018 22:00:00 16,5 15,5 21 11 31 17 NW 1018,4 - 0,8
16.10.2018 21:00:00 17,3 15,6 11 6 24 13 WNW 1018,4 - 0,0
16.10.2018 20:00:00 16,2 15,1 21 11 32 18 NW 1018,1 - 0,0
16.10.2018 19:00:00 17,6 16,1 13 7 27 15 N 1017,1 - 0,0
16.10.2018 18:00:00 17,1 16,3 11 6 26 14 NNW 1017,1 - 3,0
16.10.2018 17:00:00 17,2 16,2 16 9 23 12 WNW 1016,7 - 3,9
16.10.2018 16:00:00 18,2 17,2 11 6 14 8 NW 1016,5 - 1,4
16.10.2018 15:00:00 18,4 17,1 12 7 21 11 NNW 1016,5 - 0,0
16.10.2018 14:00:00 18,8 16,9 18 10 23 12 NNW 1016,6 12 0,0
16.10.2018 13:00:00 18,3 16,6 18 10 25 14 NW 1016,6 - 0,0
16.10.2018 12:00:00 17,1 16,3 11 6 28 15 NW 1016,4 10 1,4
16.10.2018 11:00:00 16,1 15,3 23 12 36 20 WNW 1016,3 - 0,8
16.10.2018 10:00:00 15,5 14,7 23 12 31 17 WNW 1015,9 - 8,2
16.10.2018 09:00:00 16,3 14,5 19 10 23 13 NW 1015,2 - 0,0
16.10.2018 08:00:00 15,8 14,2 22 12 26 14 WNW 1014,3 20 0,0
16.10.2018 07:00:00 15,9 14,4 20 11 25 14 NW 1013,8 - 0,0
16.10.2018 06:00:00 15,9 14,1 19 10 21 11 NW 1013,3 - 0,0
16.10.2018 05:00:00 16,4 14,2 9 5 17 9 NNW 1012,7 - 0,0
16.10.2018 04:00:00 16,2 14,4 10 6 14 8 NW 1012,7 - 0,0
16.10.2018 03:00:00 16,5 14,3 10 5 11 6 NW 1012,9 - 0,0
16.10.2018 02:00:00 16,6 14,4 4 2 19 10 N 1012,6 - 0,0
16.10.2018 01:00:00 16,2 14,0 16 8 25 13 WNW 1012,3 - 0,0
16.10.2018 00:00:00 15,9 14,3 23 12 29 16 NW 1012,0 - 0,0
15.10.2018 23:00:00 16,0 14,4 25 13 34 19 WNW 1011,4 - 0,0
15.10.2018 22:00:00 16,0 14,9 22 12 31 17 WNW 1011,1 - 0,0
15.10.2018 21:00:00 16,1 15,5 26 14 32 17 WNW 1010,3 - 1,0
15.10.2018 20:00:00 16,8 16,2 21 11 28 15 NW 1009,8 - 1,2
15.10.2018 19:00:00 17,1 16,1 21 12 26 14 NW 1009,3 - 0,2
15.10.2018 18:00:00 17,7 16,0 17 9 20 11 NNE 1009,1 - 1,0
15.10.2018 17:00:00 18,5 15,2 16 9 21 11 N 1008,3 - 0,0
15.10.2018 16:00:00 18,7 15,2 16 9 20 11 N 1007,9 - 0,0
15.10.2018 15:00:00 19,2 15,5 14 7 22 12 NNE 1007,7 - 0,0
15.10.2018 14:00:00 19,1 15,8 19 11 32 18 N 1007,7 18 0,0
15.10.2018 13:00:00 17,6 14,3 27 15 37 20 NW 1007,8 - 0,0
15.10.2018 12:00:00 17,5 13,6 22 12 40 22 NW 1007,5 - 0,0
15.10.2018 11:00:00 16,9 13,8 26 14 45 25 NW 1007,1 12 0,0
15.10.2018 10:00:00 15,5 13,3 36 19 54 29 NW 1005,9 - 0,0
15.10.2018 09:00:00 17,4 17,1 26 14 57 31 S 1005,6 - 0,0
15.10.2018 08:00:00 18,0 17,8 30 16 70 38 S 1004,1 10 0,2
15.10.2018 07:00:00 18,0 17,8 45 24 113 61 S 1003,4 - 12,2
15.10.2018 06:00:00 19,0 18,5 76 41 105 57 SE 1002,5 - 2,7
15.10.2018 05:00:00 19,0 18,5 79 42 106 57 SE 1002,6 8 4,0
15.10.2018 04:00:00 19,6 18,3 76 41 93 50 SE 1003,9 - 0,2
15.10.2018 03:00:00 20,0 17,8 76 41 92 50 SE 1005,1 - 0,0
15.10.2018 02:00:00 19,8 17,9 75 40 98 53 SE 1005,4 - 0,2
15.10.2018 01:00:00 19,9 18,2 75 41 93 50 SE 1005,8 - 0,2
15.10.2018 00:00:00 19,7 18,4 73 39 92 50 SE 1006,9 - 0,2
14.10.2018 23:00:00 19,9 18,4 69 37 83 45 SE 1007,6 - 0,0
14.10.2018 22:00:00 19,8 18,5 59 32 69 37 SE 1008,1 - 0,0
14.10.2018 21:00:00 19,6 18,4 49 27 59 32 SSE 1009,0 - 0,0
14.10.2018 20:00:00 19,5 18,0 52 28 59 32 SSE 1009,4 12 0,0
14.10.2018 19:00:00 19,6 18,1 51 28 63 34 SSE 1009,2 - 0,0
14.10.2018 18:00:00 19,7 18,0 58 31 73 39 SSE 1008,5 - 0,0
14.10.2018 17:00:00 19,7 18,2 63 34 82 45 SSE 1008,4 - 0,0
14.10.2018 16:00:00 19,6 18,4 66 36 85 46 SSE 1008,8 - 0,2
14.10.2018 15:00:00 20,1 18,4 73 39 83 45 SSE 1009,2 12 0,0
14.10.2018 14:00:00 19,6 18,4 66 36 86 46 SSE 1009,4 - 0,2
14.10.2018 13:00:00 21,1 18,3 61 33 73 39 SSE 1010,1 - 0,0
14.10.2018 12:00:00 21,1 18,5 52 28 70 38 SSE 1010,7 - 0,0
14.10.2018 11:00:00 21,1 17,7 51 27 69 38 S 1011,2 - 0,0
14.10.2018 10:00:00 20,6 17,4 45 25 58 31 S 1011,5 - 0,0
14.10.2018 09:00:00 20,1 17,3 43 23 56 30 S 1011,6 - 0,0
14.10.2018 08:00:00 19,7 17,8 37 20 49 26 S 1011,6 - 0,0
14.10.2018 07:00:00 19,5 18,2 40 22 52 28 S 1011,6 - 0,0
14.10.2018 06:00:00 19,1 18,6 48 26 64 34 SSE 1012,0 - 0,0
14.10.2018 05:00:00 18,8 18,5 42 23 60 32 SSE 1012,4 20 2,2
14.10.2018 04:00:00 19,3 18,8 52 28 58 31 SSE 1012,9 - 0,0
14.10.2018 03:00:00 19,3 18,6 50 27 61 33 SSE 1013,4 - 0,0
14.10.2018 02:00:00 19,4 18,7 54 29 62 33 SSE 1013,9 - 0,0
14.10.2018 01:00:00 19,5 18,5 51 28 66 36 S 1014,3 - 0,0
14.10.2018 00:00:00 19,6 18,4 53 29 66 36 S 1014,3 - 0,0
13.10.2018 23:00:00 19,5 18,7 58 32 65 35 SSE 1014,6 - 0,0
13.10.2018 22:00:00 20,0 18,7 48 26 61 33 S 1015,3 - 0,0
13.10.2018 21:00:00 19,6 18,6 55 30 61 33 SSE 1015,1 - 0,0
13.10.2018 20:00:00 19,7 18,7 53 29 65 35 SSE 1015,4 - 0,0
13.10.2018 19:00:00 19,7 18,9 55 30 61 33 SSE 1015,3 - 0,0
13.10.2018 18:00:00 19,7 18,9 52 28 62 33 SSE 1015,6 - 0,0
13.10.2018 17:00:00 19,9 18,9 54 29 60 32 SSE 1015,7 12 0,0
13.10.2018 16:00:00 19,8 19,0 54 29 70 38 SSE 1016,4 - 0,0
13.10.2018 15:00:00 19,7 19,2 53 28 63 34 SSE 1017,2 - 0,0
13.10.2018 14:00:00 19,6 19,1 58 32 65 35 SSE 1018,1 12 0,0
13.10.2018 13:00:00 19,8 18,8 60 33 64 35 SSE 1018,7 - 0,0
13.10.2018 12:00:00 20,0 19,0 55 30 61 33 SSE 1018,9 - 0,0
13.10.2018 11:00:00 19,5 19,0 53 29 59 32 SSE 1019,3 12 0,0
13.10.2018 10:00:00 19,1 18,9 50 27 58 31 SSE 1019,4 - 0,0
13.10.2018 09:00:00 19,3 19,1 46 25 53 29 SSE 1019,5 - 0,0
13.10.2018 08:00:00 19,1 18,8 36 20 49 26 SSE 1019,4 10 0,0
13.10.2018 07:00:00 19,4 18,7 41 22 45 24 SSE 1019,7 - 0,0
13.10.2018 06:00:00 19,1 18,8 37 20 48 26 SSE 1019,9 - 0,0
13.10.2018 05:00:00 19,1 18,9 40 22 45 24 SSE 1020,2 10 0,0
13.10.2018 04:00:00 19,1 18,9 35 19 46 25 SSE 1020,6 - 0,2
13.10.2018 03:00:00 19,1 19,1 37 20 43 23 SSE 1021,3 - 0,0
13.10.2018 02:00:00 19,1 19,1 38 21 42 23 SSE 1021,4 - 0,0
13.10.2018 01:00:00 19,3 19,1 38 20 42 23 SSE 1021,8 - 0,0
13.10.2018 00:00:00 19,2 19,0 29 16 40 22 SSE 1022,3 - 0,0
12.10.2018 23:00:00 19,5 19,2 39 21 44 24 SSE 1022,2 - 0,0
12.10.2018 22:00:00 19,7 19,0 36 20 49 26 SSE 1022,1 - 0,0
12.10.2018 21:00:00 19,6 19,1 43 23 50 27 SSE 1021,8 - 0,0
12.10.2018 20:00:00 19,3 19,1 44 24 53 29 SSE 1021,6 - 0,0
12.10.2018 19:00:00 19,5 19,2 49 26 58 31 SSE 1020,8 - 0,0
12.10.2018 18:00:00 19,5 19,2 51 28 57 31 SSE 1020,3 - 0,0
12.10.2018 17:00:00 19,5 19,2 53 28 62 33 S 1020,3 - 0,0
12.10.2018 16:00:00 19,7 19,2 57 31 63 34 SSE 1020,1 - 0,0
12.10.2018 15:00:00 19,9 19,6 51 28 61 33 SSE 1020,7 - 0,0
12.10.2018 14:00:00 19,8 19,5 52 28 61 33 SSE 1020,8 - 0,0
12.10.2018 13:00:00 19,8 19,5 54 29 59 32 SSE 1021,1 - 0,0
12.10.2018 12:00:00 19,6 19,4 42 23 49 27 SSE 1021,8 - 0,0
12.10.2018 11:00:00 19,7 19,2 35 19 40 22 SSE 1021,7 10 0,0
12.10.2018 10:00:00 19,3 18,8 21 11 23 12 SSE 1021,8 - 0,0
12.10.2018 09:00:00 18,9 18,4 13 7 16 9 SSE 1021,0 - 0,2
12.10.2018 08:00:00 18,7 18,2 3 2 13 7 S 1020,2 10 0,0
12.10.2018 07:00:00 18,6 18,1 7 4 11 6 SE 1019,4 - 0,0
12.10.2018 06:00:00 18,7 18,2 4 2 11 6 SSE 1019,0 - 0,0
12.10.2018 05:00:00 17,9 17,4 3 2 8 4 NW 1018,6 10 0,0
12.10.2018 04:00:00 18,2 17,7 2 1 7 4 ENE 1018,4 - 0,0
12.10.2018 03:00:00 18,4 17,7 3 2 9 5 WNW 1018,5 - 0,0
12.10.2018 02:00:00 18,4 17,9 9 5 14 8 WNW 1018,3 - 0,0
12.10.2018 01:00:00 18,5 18,0 6 3 10 5 SE 1017,6 - 0,0
12.10.2018 00:00:00 18,8 18,1 0 0 10 5 N 1017,4 - 0,0
11.10.2018 23:00:00 19,0 18,2 7 4 8 5 SSE 1016,8 - 0,0
11.10.2018 22:00:00 19,2 18,0 6 4 26 14 E 1016,5 - 0,0
11.10.2018 21:00:00 19,3 18,0 23 12 29 16 WNW 1015,8 - 0,0
11.10.2018 20:00:00 19,4 17,9 24 13 28 15 NW 1014,8 15 0,0
11.10.2018 19:00:00 19,3 18,3 20 11 27 15 NW 1013,7 - 0,0
11.10.2018 18:00:00 20,2 17,8 23 12 28 15 NW 1013,0 - 0,0
11.10.2018 17:00:00 20,2 18,7 11 6 13 7 NW 1012,4 - 0,0
11.10.2018 16:00:00 19,9 18,2 4 2 9 5 NNW 1012,4 - 0,0
11.10.2018 15:00:00 21,2 16,8 5 3 12 6 NE 1012,6 - 0,0
11.10.2018 14:00:00 20,0 16,6 8 4 16 8 ENE 1012,6 - 0,0
11.10.2018 13:00:00 19,6 17,0 8 4 10 5 N 1012,7 - 0,0
11.10.2018 12:00:00 19,0 16,8 7 4 14 8 NNW 1012,9 - 0,0
11.10.2018 11:00:00 18,3 16,5 11 6 23 12 NW 1012,7 - 0,0
11.10.2018 10:00:00 16,9 15,9 17 9 22 12 NW 1012,2 - 0,0
11.10.2018 09:00:00 17,3 15,5 6 3 33 18 SSW 1011,3 - 0,0
11.10.2018 08:00:00 17,9 15,3 30 16 41 22 SSW 1010,4 15 0,0

tt = temperature
td = dewpoint
ff = wind speed
fx = gusts
dd = wind direction
ppp = reduced air pressure
vv = visibility
rr = precipitation

Next stations